Tracking 19717 objects as of 25-Jun-2019
HD Live streaming from Space Station
objects crossing your sky now

FENGYUN 1C DEB

Track FENGYUN 1C DEB now!
10-day predictions


NORAD ID: 35191
Int'l Code: 1999-025DNX
Perigee: 859.4 km
Apogee: 1,012.4 km
Inclination: 99.0 °
Period: 103.6 minutes
Semi major axis: 7306 km
RCS: 0.0133 m2 (small)
Launch date: May 10, 1999
Source: People's Republic of China (PRC)
Launch site: Taiyaun Space Center, China (TSC)

Note: This is SATELLITE DEBRIS
aabbcc
Your satellite tracking list
Your tracking list is empty




NASA's NSSDC Master Catalog

Two Line Element Set (TLE):
1 35191U 99025DNX 19174.30951080  .00000059  00000-0  78455-4 0  9999
2 35191  99.0221 206.2188 0104690 163.6825 196.7746 13.89975805552177
Source of the keplerian elements: AFSPC